This demonstration page uses our WeatherBlox Daily Observations layout. Learn more.

Left ArrowRight Arrow

Hourly Observations for February 20, 2018

Temp ( °F °C ) Dew Point ( °F °C ) Humidity (%) Winds ( mph kmh ) Pressure ( in mb ) Visibility ( mi km ) Precip ( " mm )
12:15 am 00:15 Partly Cloudy 43 6 43 6 100 100 S 6 9 30.36 1028 10 16.0934 0 0
12:35 am 00:35 Mostly Cloudy 43 6 43 6 100 100 S 5 7 30.36 1028 10 16.0934 0 0
12:55 am 00:55 Cloudy 45 7 45 7 100 100 SSW 5 7 30.36 1028 10 16.0934 0 0
1:15 am 01:15 Cloudy 45 7 45 7 100 100 SSW 5 7 30.36 1028 7 11.26538 0 0
1:35 am 01:35 Cloudy 45 7 45 7 100 100 SSW 8 13 30.36 1028 10 16.0934 0 0
1:55 am 01:55 Cloudy 45 7 45 7 100 100 SSW 8 13 30.36 1028 10 16.0934 0 0
2:15 am 02:15 Cloudy 45 7 45 7 100 100 SSW 7 11 30.36 1028 10 16.0934 0 0
2:35 am 02:35 Cloudy 46 8 46 8 100 100 SSW 6 9 30.36 1028 7 11.26538 0 0
2:55 am 02:55 Cloudy with Mist and Fog 46 8 46 8 100 100 SW 7 11 30.33 1027 5 8.0467 0 0
3:15 am 03:15 Cloudy with Mist and Fog 46 8 46 8 100 100 SSW 6 9 30.33 1027 5 8.0467 0 0
3:35 am 03:35 Cloudy with Mist and Fog 46 8 46 8 100 100 SSW 5 7 30.33 1027 2.5 4.02335 0 0
3:55 am 03:55 Cloudy with Mist and Fog 46 8 46 8 100 100 SW 5 7 30.33 1027 1.5 2.41401 0 0
4:15 am 04:15 Cloudy with Mist and Fog 46 8 46 8 100 100 Calm 30.36 1028 1 1.60934 0 0
4:35 am 04:35 Cloudy with Mist and Fog 46 8 46 8 100 100 SSW 5 7 30.33 1027 1 1.60934 0 0
4:55 am 04:55 Cloudy with Mist and Fog 46 8 46 8 100 100 SSW 8 13 30.33 1027 3 4.82802 0 0
5:15 am 05:15 Cloudy with Mist and Fog 46 8 46 8 100 100 SSW 6 9 30.36 1028 4 6.43736 0 0
5:35 am 05:35 Cloudy with Mist and Fog 46 8 46 8 100 100 SW 3 6 30.36 1028 5 8.0467 0 0
5:55 am 05:55 Cloudy with Mist and Fog 46 8 46 8 100 100 SW 3 6 30.36 1028 5 8.0467 0 0
6:15 am 06:15 Cloudy with Mist and Fog 46 8 46 8 100 100 SW 6 9 30.39 1029 5 8.0467 0 0
6:35 am 06:35 Cloudy with Mist and Fog 46 8 46 8 100 100 SSW 6 9 30.39 1029 5 8.0467 0 0
6:55 am 06:55 Cloudy with Mist and Fog 46 8 46 8 100 100 SSW 8 13 30.39 1029 5 8.0467 0 0
7:15 am 07:15 Cloudy with Mist and Fog 46 8 46 8 100 100 SSW 8 13 30.39 1029 5 8.0467 0 0
7:35 am 07:35 Cloudy with Mist and Fog 48 9 48 9 100 100 SSW 6 9 30.39 1029 5 8.0467 0 0
7:55 am 07:55 Cloudy 48 9 48 9 100 100 SW 6 9 30.39 1029 7 11.26538 0 0
8:15 am 08:15 Cloudy 50 10 50 10 100 100 SW 5 7 30.39 1029 7 11.26538 0 0
8:35 am 08:35 Mostly Cloudy 50 10 50 10 100 100 SW 7 11 30.39 1029 10 16.0934 0 0
8:55 am 08:55 Cloudy 52 11 52 11 100 100 SSW 6 9 30.42 1030 10 16.0934 0 0
9:15 am 09:15 Partly Cloudy 54 12 52 11 94 94 SW 9 15 30.42 1030 10 16.0934 0 0
9:35 am 09:35 Sunny 55 13 52 11 88 88 SSW 6 9 30.42 1030 10 16.0934 0 0
9:55 am 09:55 Partly Cloudy 57 14 54 12 88 88 S 7 11 30.39 1029 10 16.0934 0 0
10:15 am 10:15 Sunny 59 15 54 12 82 82 SSE 7 11 30.36 1028 10 16.0934 0 0
10:35 am 10:35 Sunny 61 16 54 12 77 77 WSW 7 11 30.36 1028 10 16.0934 0 0
10:55 am 10:55 Sunny 63 17 55 13 77 77 SW 7 11 30.36 1028 10 16.0934 0 0
11:15 am 11:15 Sunny 64 18 55 13 73 73 S 9 15 30.36 1028 10 16.0934 0 0
11:35 am 11:35 Sunny 66 19 55 13 68 68 S 9 15 30.36 1028 10 16.0934 0 0
11:55 am 11:55 Sunny 68 20 55 13 64 64 S 13 20 30.33 1027 10 16.0934 0 0
12:15 pm 12:15 Sunny 70 21 57 14 64 64 S 14 22 30.33 1027 10 16.0934 0 0
12:35 pm 12:35 Sunny 72 22 57 14 61 61 SSW 14 22 30.3 1026 10 16.0934 0 0
12:55 pm 12:55 Sunny 73 23 57 14 57 57 S 10 17 30.3 1026 10 16.0934 0 0
1:15 pm 13:15 Sunny 75 24 57 14 54 54 S 12 19 30.3 1026 10 16.0934 0 0
1:35 pm 13:35 Sunny 77 25 57 14 51 51 SSW 12 19 30.27 1025 10 16.0934 0 0
1:55 pm 13:55 Sunny 77 25 57 14 51 51 SSW 14 22 30.27 1025 10 16.0934 0 0
2:15 pm 14:15 Sunny 79 26 57 14 48 48 SSW 13 20 30.27 1025 10 16.0934 0 0
2:35 pm 14:35 Sunny 79 26 57 14 48 48 SSW 13 20 30.27 1025 10 16.0934 0 0
2:55 pm 14:55 Sunny 79 26 57 14 48 48 SSW 18 30 30.27 1025 10 16.0934 0 0
3:15 pm 15:15 Sunny 79 26 59 15 51 51 SSW 15 24 30.27 1025 10 16.0934 0 0
3:35 pm 15:35 Sunny 79 26 59 15 51 51 S 17 28 30.27 1025 10 16.0934 0 0
3:55 pm 15:55 Sunny 79 26 59 15 51 51 SSW 17 28 30.27 1025 10 16.0934 0 0
4:15 pm 16:15 Sunny 77 25 57 14 51 51 S 14 22 30.27 1025 10 16.0934 0 0
4:35 pm 16:35 Sunny 77 25 57 14 51 51 S 16 26 30.27 1025 10 16.0934 0 0
4:55 pm 16:55 Sunny 75 24 57 14 54 54 SSW 14 22 30.27 1025 10 16.0934 0 0
5:15 pm 17:15 Sunny 73 23 57 14 57 57 SSW 12 19 30.27 1025 10 16.0934 0 0
5:35 pm 17:35 Sunny 73 23 57 14 57 57 SSW 13 20 30.27 1025 10 16.0934 0 0
5:55 pm 17:55 Clear 72 22 59 15 65 65 S 9 15 30.3 1026 10 16.0934 0 0
6:15 pm 18:15 Clear 72 22 59 15 65 65 S 8 13 30.3 1026 10 16.0934 0 0
6:35 pm 18:35 Clear 72 22 57 14 61 61 S 9 15 30.3 1026 10 16.0934 0 0
6:55 pm 18:55 Clear 70 21 57 14 64 64 S 9 15 30.3 1026 10 16.0934 0 0
7:15 pm 19:15 Clear 70 21 57 14 64 64 S 8 13 30.3 1026 10 16.0934 0 0
7:35 pm 19:35 Clear 70 21 55 13 60 60 S 16 26 30.33 1027 10 16.0934 0 0
7:55 pm 19:55 Clear 70 21 55 13 60 60 SSW 13 20 30.3 1026 10 16.0934 0 0
8:15 pm 20:15 Clear 70 21 57 14 64 64 SSW 13 20 30.3 1026 10 16.0934 0 0
8:35 pm 20:35 Clear 68 20 57 14 69 69 SSW 13 20 30.33 1027 10 16.0934 0 0
8:55 pm 20:55 Clear 68 20 59 15 73 73 SSW 14 22 30.33 1027 10 16.0934 0 0
9:15 pm 21:15 Clear 68 20 59 15 73 73 SSW 14 22 30.33 1027 10 16.0934 0 0
9:35 pm 21:35 Clear 66 19 59 15 78 78 SSW 10 17 30.33 1027 10 16.0934 0 0
9:55 pm 21:55 Clear 66 19 59 15 78 78 SSW 8 13 30.33 1027 10 16.0934 0 0
10:15 pm 22:15 Clear 66 19 59 15 78 78 S 10 17 30.33 1027 10 16.0934 0 0
10:35 pm 22:35 Clear 64 18 59 15 83 83 S 9 15 30.33 1027 10 16.0934 0 0
10:55 pm 22:55 Clear 64 18 59 15 83 83 SSW 7 11 30.33 1027 10 16.0934 0 0
11:15 pm 23:15 Clear 64 18 59 15 83 83 SSW 6 9 30.33 1027 10 16.0934 0 0
11:35 pm 23:35 Clear 64 18 59 15 83 83 Calm 30.33 1027 10 16.0934 0 0
11:55 pm 23:55 Clear 64 18 59 15 83 83 SSW 7 11 30.33 1027 10 16.0934 0 0

Powered by AerisWeather